Flag for Paraguay Weather past 2 weeks in Ciudad del Este, Paraguay

Now
63 °F

Sunny.


Feels Like: 63 °F
Forecast: 59 / 93 °F
Wind: 13 mph from East

Location: Foz Do Iguacu Aeroporto

Current Time: Aug 31, 2015 at 7:02:58 AM

Latest Report: Aug 31, 2015 at 6:00 AM


Visibility: 10 mi

Pressure: 30.01 "Hg

Humidity: 77%

Dew point: 55 °F

Location of Ciudad del EsteLocation

Historic Weather in Ciudad del Este — Graph

°F

Ciudad del Este temperature yesterday

Maximum temperature yesterday: 88 °F (at 2:00 PM)
Minimum temperature yesterday: 59 °F (at 6:00 AM)
Average temperature yesterday: 72 °F

Past Weeks' High & Low Weather Summary

 TemperatureHumidityPressure
High88 °F (Aug 16, 2:00 PM)100% (Aug 18, 9:00 AM)30.18 "Hg (Aug 18, 9:00 AM)
Low46 °F (Aug 18, 9:00 AM)24% (Aug 30, 1:00 PM)29.68 "Hg (Aug 16, 6:00 AM)
Average68 °F73%30.00 "Hg
* Reported Aug 16 6:00 AM — Aug 31 6:00 AM, Ciudad del Este, Weather by CustomWeather, © 2015

Note: Actual official high and low records may vary slightly from our data, if they occured in-between our weather recording intervals... More about our weather records

Advertising

Ciudad del Este weather history for previous 24 hours

 ConditionsComfort  
Time TempWeatherWind HumidityBarometerVisibility
6:00 AM
Mon, Aug 31
63 °FSunny.13 mph77%30.01 "Hg10 mi
5:00 AM63 °FSunny.9 mph77%29.98 "Hg10 mi
4:00 AM63 °FClear.9 mph77%29.98 "Hg10 mi
3:00 AM63 °FClear.12 mph83%29.98 "Hg10 mi
2:00 AM63 °FClear.8 mph83%29.98 "Hg10 mi
1:00 AM64 °FClear.5 mph78%30.01 "Hg10 mi
12:00 AM64 °FClear.7 mph78%30.01 "Hg10 mi
11:00 PM
Sun, Aug 30
66 °FClear.7 mph68%30.01 "Hg10 mi
10:00 PM68 °FClear.6 mph60%30.01 "Hg10 mi
9:00 PM64 °FClear.2 mph73%29.98 "Hg10 mi
8:00 PM64 °FClear.2 mph68%29.98 "Hg10 mi
7:00 PM68 °FClear.No wind60%29.98 "Hg10 mi
5:00 PM84 °FClear.6 mph27%29.98 "Hg10 mi
4:00 PM88 °FSunny.6 mph24%29.98 "Hg10 mi
3:00 PM88 °FSunny.10 mph25%29.98 "Hg10 mi
2:00 PM88 °FSunny.14 mph24%30.01 "Hg10 mi
1:00 PM86 °FSunny.13 mph24%30.04 "Hg10 mi
12:00 PM86 °FSunny.13 mph25%30.07 "Hg10 mi
11:00 AM84 °FSunny.10 mph33%30.09 "Hg10 mi
10:00 AM77 °FSunny.6 mph54%30.09 "Hg10 mi
9:00 AM72 °FSunny.5 mph65%30.09 "Hg10 mi
8:00 AM64 °FSunny.9 mph78%30.07 "Hg10 mi
7:00 AM63 °FSunny.7 mph83%30.07 "Hg10 mi
Weather by CustomWeather, © 2015

See weather overviewHow to use our weather pages